This is the latest recevied weather packets stored in our database for station/object W8AN. If no packets are shown the sender has not sent any weather packets the latest 10 day(s).
| Time | Temp. | Humidity | Pressure | Rain* | Wind** | Luminosity | Snow |
|---|---|---|---|---|---|---|---|
| 1778154343 | 5.56° C | 76% | 4268.6 hPa | 0 mm | - | 83 W/m² | - |
| 1778154041 | 5.56° C | 77% | 4268.6 hPa | 0 mm | - | 70 W/m² | - |
| 1778153738 | 5.56° C | 77% | 4268.6 hPa | 0 mm | - | 65 W/m² | - |
| 1778153435 | 5° C | 78% | 4268.6 hPa | 0 mm | - | 57 W/m² | - |
| 1778153133 | 5° C | 78% | 4268.3 hPa | 0 mm | - | 50 W/m² | - |
| 1778152829 | 5° C | 78% | 4268.3 hPa | 0 mm | - | 48 W/m² | - |
| 1778152527 | 5° C | 78% | 4268.3 hPa | 0 mm | - | 39 W/m² | - |
| 1778152223 | 5° C | 79% | 4268.3 hPa | 0 mm | - | 33 W/m² | - |
| 1778151920 | 5° C | 79% | 4268.1 hPa | 0 mm | - | 26 W/m² | - |
| 1778151616 | 5° C | 79% | 4268.4 hPa | 0 mm | - | 23 W/m² | - |
| 1778151313 | 5° C | 79% | 4268.1 hPa | 0 mm | - | 17 W/m² | - |
| 1778151009 | 4.44° C | 79% | 4268 hPa | 0 mm | - | 14 W/m² | - |
| 1778150707 | 4.44° C | 79% | 4268.1 hPa | 0 mm | - | 10 W/m² | - |
| 1778150403 | 4.44° C | 79% | 4268 hPa | 0 mm | - | 6 W/m² | - |
| 1778150099 | 4.44° C | 79% | 4268.1 hPa | 0 mm | - | 4 W/m² | - |
| 1778149795 | 4.44° C | 79% | 4268.4 hPa | 0 mm | - | 3 W/m² | - |
| 1778149492 | 4.44° C | 79% | 4268 hPa | 0 mm | - | 2 W/m² | - |
| 1778149189 | 5° C | 79% | 4267.9 hPa | 0 mm | - | 0 W/m² | - |
| 1778148884 | 5° C | 79% | 4267.6 hPa | 0 mm | - | 0 W/m² | - |
| 1778148580 | 5° C | 78% | 4267.8 hPa | 0 mm | - | 0 W/m² | - |
| 1778148278 | 5° C | 78% | 4267.6 hPa | 0 mm | - | 0 W/m² | - |
| 1778147976 | 5° C | 78% | 4267.8 hPa | 0 mm | - | 0 W/m² | - |
| 1778147673 | 5° C | 78% | 4267.8 hPa | 0 mm | - | 0 W/m² | - |
| 1778147371 | 5° C | 78% | 4267.9 hPa | 0 mm | - | 0 W/m² | - |
| 1778147066 | 5° C | 78% | 4267.5 hPa | 0 mm | - | 0 W/m² | - |
* Rain latest hour (hover to see other rain measurements)
** Current wind speed in m/s (hover to see current wind gust speed)